Regional Weather Roundup
Issued by NWS Charleston, SC

Current Version | Previous Version | Text Only | Print | Product List | Glossary On
Versions: 1 2 3 4 5 6 7 8 9 10 11 12 13 14 15 16 17 18 19 20 21 22 23 24 25 26 27 28 29 30 31 32 33 34 35 36 37 38 39 40 41 42 43 44 45 46 47 48 49 50
000
ASUS42 KCHS 231612
RWRCHS

REGIONAL WEATHER ROUNDUP
NATIONAL WEATHER SERVICE CHARLESTON SC
1200 PM EDT SUN APR 23 2017

NOTE: "FAIR" INDICATES FEW OR NO CLOUDS BELOW 12,000 FEET WITH NO
SIGNIFICANT WEATHER AND/OR OBSTRUCTIONS TO VISIBILITY.

NOT ALL STATIONS ARE QUALITY CONTROLLED. USE DATA WITH CAUTION...
ESPECIALLY DEWPOINT OBSERVATIONS.

SCZ027-030-031-034>040-042>050-231700-
...SOUTHEAST SOUTH CAROLINA...

CITY           SKY/WX    TMP DP  RH WIND       PRES   REMARKS
N CHARLESTON   MOSUNNY   82  68  62 S12G17    29.87S
WATERFRONT PRK   N/A     75  70  84 S12       29.86S
JOHNS ISLAND   CLOUDY    79  70  73 SE10G16   29.88F
PINOPOLIS        N/A     73  70  88 VRB3      29.81S
MONCKS CORNER  FAIR      79  68  69 NE3       29.87S HAZE
SUMMERVILLE    PTSUNNY   81  66  61 S5        29.87F
BEAUFORT MCAS  MOSUNNY   85  70  60 VRB5      29.85F
BEAUFORT ARPT  FAIR      81  66  61 SW6       29.86S
HILTON HEAD IS SUNNY     79  72  78 S12       29.88R
WALTERBORO     MOSUNNY   81  64  57 SW8       29.86F
ALLENDALE      FAIR      82  61  47 S8        29.85S

...SOUTHERN MIDLANDS AND PEE DEE...

CITY           SKY/WX    TMP DP  RH WIND       PRES   REMARKS
GEORGETOWN     CLOUDY    72  68  88 E13       29.90S
KINGSTREE      CLOUDY    68  61  77 NE8       29.91S
ORANGEBURG     SUNNY     78  64  61 VRB3      29.86F
BARNWELL       FAIR      82  64  54 E7        29.86S
AIKEN          PTSUNNY   73  63  68 NE9       29.90F
MANNING        FAIR      73  64  73 NE14G29   29.88F
COLUMBIA       CLOUDY    69  59  70 NE9       29.89S
SUMTER         CLOUDY    67  59  77 NE13      29.89S
FLORENCE       CLOUDY    64  58  80 NE12      29.94S
MYRTLE BEACH   PTSUNNY   64  63  94 E18       29.94S
N MYRTLE BEACH CLOUDY    67  63  87 NE13      29.93S

$$

GAZ063-065-086>088-099>101-113>116-118-119-134>141-150-231700-
...SOUTHEAST GEORGIA...

CITY           SKY/WX    TMP DP  RH WIND       PRES   REMARKS
SAVANNAH ARPT  PTSUNNY   84  61  45 SW12      29.86F
HUNTER AAF     NOT AVBL
FORT STEWART   MOSUNNY   83  62  48 S6        29.84F
STATESBORO     MOSUNNY   82  61  49 S9        29.85F
SYLVANIA       PTSUNNY   82  64  54 SW3       29.86S
CLAXTON        PTSUNNY   80  67  63 S5        29.86S

...CSRA...CENTRAL AND FAR SOUTHEAST GEORGIA...

CITY           SKY/WX    TMP DP  RH WIND       PRES   REMARKS
THOMSON        MOSUNNY   76  63  62 S6        29.89F
AUGUSTA-BUSH   MOSUNNY   82  65  56 E8        29.84F
AUGUSTA-DANIEL MOSUNNY   80  61  52 SE8       29.86F
SWAINSBORO     FAIR      79  61  53 S8        29.86F
VIDALIA        PTSUNNY   81  61  50 SW8       29.86S
EASTMAN        PTSUNNY   81  48  31 S7        29.87S
HAZLEHURST     FAIR      81  62  52 SW10      29.85F
ALMA           SUNNY     81  62  52 S8        29.86F
WAYCROSS       MOSUNNY   85  66  52 SW5       29.86S
JESUP          FAIR      82  57  42 S6        29.86F
BAXLEY         FAIR      81  64  57 S10       29.86S
BRUNSWICK      SUNNY     84  64  51 SW8       29.87F
SAINT SIMONS   SUNNY     82  60  47 SE10      29.87S

$$

SCZ027-028-034-036>038-045-046-048>050-GAZ119-141-231700-
...LAKE AND SUPPLEMENTAL COASTAL OBSERVATIONS...

STATION/POSITION TIME  TEMP    WIND        PRES    WAVE   SWELL
                       AIR SEA DIR/SP/G            HT/PER HT/PER/DIR
                 (UTC) (F)     (DEG/KT/KT) (MB)    (FT/S) (FT/S/D)
WINYAH BAY       NOT AVBL
LAKE MURRAY      1520   62      30/  6/  8 1012.2S
ACE BASIN NERRS  NOT AVBL
FORT PULASKI     1548      74  160/  9/ 12 1011.6S
SAPELO ISLAND    1500   80     230/  4     1011.0

$$

ANZ835-935-AMZ111-154-330-350-352-354-370-450-454-472-231700-
...C-MAN AND BUOY OBSERVATIONS...

STATION/POSITION TIME  TEMP    WIND        PRES    WAVE   SWELL
                       AIR SEA DIR/SP/G            HT/PER HT/PER/DIR
                 (UTC) (F)     (DEG/KT/KT) (MB)    (FT/S) (FT/S/D)
BUOY 41004       1550   75 74  200/  4/  6 1012.5S   3/12   3/100/12
BUOY 41008       1450   72 72  200/  6/  6 1011.6    3/ 6   3/140/ 6
FOLLY BEACH CMAN 1500   75     180/  8/ 10 1012.7R
CAPERS NEARSHORE 1508   73 73  190/ 10/ 14 1012.2S
FRIPP NEARSHORE  1508   72 74  220/  8/ 12 1011.6R


STATION/POSITION TIME  TEMP    WIND        PRES    WAVE   SWELL
                       AIR SEA DIR/SP/G            HT/PER HT/PER/DIR
                 (UTC) (F)     (DEG/KT/KT) (MB)    (FT/S) (FT/S/D)
5E ST. MARYS GA  1530      72                N/A     2/ 5   2/ 80/14
FRYING PAN BUOY  1550   73 73   50/  6/  8 1013.3S   4/ 6   3/180/ 6
BUOY 41025       1550   67 74   30/ 16/ 17 1015.3F   5/ 7   3/ 50/11
CAPE LOOKOUT NC  1500   62      40/ 21/ 23 1015.2R
BUOY 41002       1550   73 75  180/ 10/ 10 1015.4S   4/11   5/ 20/11
BUOY 41010       1550   76 78  150/ 14/ 17 1013.0F   6/13   5/ 80/13
ST AUGUSTINE FL  1600   74 76  120/  8/  9 1012.9S


$$




USA.gov is the U.S. government's official web portal to all federal, state and local government web resources and services.